FW6664 Weather Reports


Display with metric or nautical units.
time (UTC)temp
F
wind
direction
speed
MPH
gust
MPH
rain 1hr
in
rain 24hr
in
rain mn
in
humidity
%
barometer
mb
20260903174533 76 279 4.0 6.0 0.00 0.00 0.00 33 1017.0
20260903174329 77 277 7.0 0.0 0.00 0.00 0.00 33 1017.0
20260903174033 76 235 1.0 2.0 0.00 0.00 0.00 33 1017.0
20260903173827 76 235 3.0 0.0 0.00 0.00 0.00 33 1017.0
20260903173523 76 222 2.0 4.0 0.00 0.00 0.00 33 1017.0
20260903173325 77 222 2.0 0.0 0.00 0.00 0.00 33 1017.0
20260903173020 76 286 1.0 4.0 0.00 0.00 0.00 33 1017.0
20260903172845 76 286 4.0 0.0 0.00 0.00 0.00 33 1017.0
20260903172515 76 290 1.0 4.0 0.00 0.00 0.00 33 1017.0
20260903172340 76 307 2.0 0.0 0.00 0.00 0.00 33 1017.0
20260903172011 75 249 1.0 2.0 0.00 0.00 0.00 33 1017.0
20260903171859 75 253 1.0 0.0 0.00 0.00 0.00 33 1017.0
20260903171556 74 252 1.0 3.0 0.00 0.00 0.00 33 1017.0
20260903171334 74 245 4.0 0.0 0.00 0.00 0.00 33 1017.0
20260903171037 73 242 2.0 3.0 0.00 0.00 0.00 33 1017.0
20260903170831 73 260 3.0 0.0 0.00 0.00 0.00 33 1017.0
20260903170530 72 223 1.0 4.0 0.00 0.00 0.00 33 1017.0
20260903170329 73 223 2.0 0.0 0.00 0.00 0.00 33 1017.0
20260903170027 72 226 1.0 4.0 0.00 0.00 0.00 33 1017.0
20260903165833 72 226 2.0 0.0 0.00 0.00 0.00 33 1017.0
20260903165519 71 241 2.0 4.0 0.00 0.00 0.00 33 1017.0
20260903165325 72 309 1.0 0.0 0.00 0.00 0.00 33 1017.0
20260903165052 71 309 3.0 4.0 0.00 0.00 0.00 33 1017.0
20260903164843 71 311 1.0 0.0 0.00 0.00 0.00 33 1017.0
20260903164601 70 311 1.0 4.0 0.00 0.00 0.00 33 1017.0
20260903164340 70 314 2.0 0.0 0.00 0.00 0.00 33 1017.0
20260903164041 70 314 2.0 4.0 0.00 0.00 0.00 33 1017.0
20260903163837 70 309 2.0 0.0 0.00 0.00 0.00 33 1017.0
20260903163533 70 295 2.0 3.0 0.00 0.00 0.00 33 1017.0
20260903163332 70 302 6.0 0.0 0.00 0.00 0.00 33 1017.0
20260903163026 69 326 1.0 4.0 0.00 0.00 0.00 33 1017.0
20260903162828 70 325 2.0 0.0 0.00 0.00 0.00 33 1017.0
20260903162521 70 287 2.0 4.0 0.00 0.00 0.00 33 1017.0
20260903162327 70 289 5.0 0.0 0.00 0.00 0.00 33 1017.0
20260903162017 69 347 2.0 3.0 0.00 0.00 0.00 33 1017.0
20260903161843 70 12 1.0 0.0 0.00 0.00 0.00 33 1017.0
20260903161504 69 23 0.0 2.0 0.00 0.00 0.00 33 1017.0
20260903161333 69 22 2.0 0.0 0.00 0.00 0.00 33 1017.0
20260903161034 69 23 2.0 2.0 0.00 0.00 0.00 33 1017.0
20260903160827 69 41 0.0 0.0 0.00 0.00 0.00 33 1017.0
20260903160523 69 41 1.0 1.0 0.00 0.00 0.00 33 1017.0
20260903160341 69 41 2.0 0.0 0.00 0.00 0.00 33 1017.0
20260903160009 68 41 0.0 0.0 0.00 0.00 0.00 33 1017.0
20260903155830 69 41 1.0 0.0 0.00 0.00 0.00 33 1017.0
20260903155600 68 41 0.0 1.0 0.00 0.00 0.00 33 1017.0
20260903155342 68 41 0.0 0.0 0.00 0.00 0.00 33 1017.0
20260903155023 68 41 0.0 1.0 0.00 0.00 0.00 33 1017.0
20260903154833 68 41 1.0 0.0 0.00 0.00 0.00 33 1017.0
20260903154522 68 41 0.0 1.0 0.00 0.00 0.00 33 1017.0
20260903154346 69 41 1.0 0.0 0.00 0.00 0.00 33 1017.0
20260903154103 69 41 0.0 1.0 0.00 0.00 0.00 33 1017.0
20260903154002 69 41 0.0 0.0 0.00 0.00 0.00 33 1017.0
20260903153838 69 41 1.0 0.0 0.00 0.00 0.00 33 1017.0
20260903153553 69 41 0.0 0.0 0.00 0.00 0.00 33 1017.0
20260903153330 69 41 0.0 0.0 0.00 0.00 0.00 33 1017.0
20260903153040 68 41 0.0 0.0 0.00 0.00 0.00 33 1017.0
20260903152904 68 41 2.0 0.0 0.00 0.00 0.00 33 1017.0
20260903152505 67 41 0.0 0.0 0.00 0.00 0.00 33 1017.0
20260903152351 68 41 0.0 0.0 0.00 0.00 0.00 33 1017.0
20260903152036 67 41 0.0 1.0 0.00 0.00 0.00 33 1017.0
20260903151843 67 41 1.0 0.0 0.00 0.00 0.00 33 1017.0
20260903151558 66 41 1.0 1.0 0.00 0.00 0.00 33 1017.0
20260903151332 66 41 1.0 0.0 0.00 0.00 0.00 33 1017.0
20260903151046 65 41 0.0 1.0 0.00 0.00 0.00 33 1017.0
20260903150826 66 41 1.0 0.0 0.00 0.00 0.00 33 1017.0
20260903150540 65 41 0.0 1.0 0.00 0.00 0.00 33 1017.0
20260903150339 65 41 1.0 0.0 0.00 0.00 0.00 33 1017.0
20260903150027 64 41 0.0 1.0 0.00 0.00 0.00 33 1017.0
20260903145829 64 41 0.0 0.0 0.00 0.00 0.00 33 1017.0
20260903145518 64 41 0.0 1.0 0.00 0.00 0.00 33 1017.0
20260903145343 64 41 1.0 0.0 0.00 0.00 0.00 33 1017.0
20260903145101 63 41 0.0 1.0 0.00 0.00 0.00 33 1017.0
20260903145004 63 41 0.0 1.0 0.00 0.00 0.00 33 1017.0
20260903144829 63 41 0.0 0.0 0.00 0.00 0.00 33 1017.0
20260903144559 63 41 1.0 2.0 0.00 0.00 0.00 33 1017.0
20260903144406 63 41 1.0 0.0 0.00 0.00 0.00 33 1017.0
20260903144019 62 41 0.0 2.0 0.00 0.00 0.00 33 1017.0
20260903143835 62 41 2.0 0.0 0.00 0.00 0.00 33 1017.0
20260903143506 62 41 0.0 0.0 0.00 0.00 0.00 33 1017.0
20260903143327 62 41 1.0 0.0 0.00 0.00 0.00 33 1017.0
20260903143056 61 41 0.0 0.0 0.00 0.00 0.00 33 1017.0
20260903142839 61 41 0.0 0.0 0.00 0.00 0.00 33 1017.0
20260903142543 61 41 0.0 0.0 0.00 0.00 0.00 33 1017.0
20260903142353 61 41 0.0 0.0 0.00 0.00 0.00 33 1017.0
20260903142018 60 41 0.0 0.0 0.00 0.00 0.00 33 1017.0
20260903141831 60 41 1.0 0.0 0.00 0.00 0.00 33 1017.0
20260903090530 62 279 0.0 0.0 0.00 0.00 0.00 33 1017.0
20260903090335 62 279 0.0 0.0 0.00 0.00 0.00 33 1017.0
20260903090022 62 279 0.0 0.0 0.00 0.00 0.00 33 1017.0
20260903030339 68 276 4.0 0.0 0.00 0.00 0.00 33 1017.0
20260903030100 67 270 3.0 3.0 0.00 0.00 0.00 33 1017.0
20260903021032 71 257 3.0 6.0 0.00 0.00 0.00 33 1017.0
20260903020843 72 264 9.0 0.0 0.00 0.00 0.00 33 1017.0
20260903020507 72 252 2.0 5.0 0.00 0.00 0.00 33 1017.0
20260903020337 73 242 1.0 0.0 0.00 0.00 0.00 33 1017.0
20260903020056 73 276 3.0 5.0 0.00 0.00 0.00 33 1017.0
20260903015832 74 266 3.0 0.0 0.00 0.00 0.00 33 1017.0
20260903015548 73 303 1.0 3.0 0.00 0.00 0.00 33 1017.0
20260903015328 74 303 2.0 0.0 0.00 0.00 0.00 33 1017.0
20260903015043 73 305 2.0 6.0 0.00 0.00 0.00 33 1017.0
20260903014825 74 279 2.0 0.0 0.00 0.00 0.00 33 1017.0
20260903014522 73 286 2.0 6.0 0.00 0.00 0.00 33 1017.0
20260903014324 74 264 3.0 0.0 0.00 0.00 0.00 33 1017.0
20260903014014 73 284 3.0 6.0 0.00 0.00 0.00 33 1017.0
20260903013840 74 212 8.0 0.0 0.00 0.00 0.00 33 1017.0
20260903013506 74 221 3.0 4.0 0.00 0.00 0.00 33 1017.0
20260903013358 74 221 4.0 0.0 0.00 0.00 0.00 33 1017.0
20260903013043 74 213 3.0 5.0 0.00 0.00 0.00 33 1017.0
20260903012832 74 238 4.0 0.0 0.00 0.00 0.00 33 1017.0
20260903012534 74 218 4.0 5.0 0.00 0.00 0.00 33 1017.0
20260903012329 75 235 3.0 0.0 0.00 0.00 0.00 33 1017.0
20260903012028 75 223 3.0 5.0 0.00 0.00 0.00 33 1017.0
20260903011829 75 282 4.0 0.0 0.00 0.00 0.00 33 1017.0
20260903011558 74 274 4.0 5.0 0.00 0.00 0.00 33 1017.0
20260903011504 75 218 3.0 4.0 0.00 0.00 0.00 33 1017.0
20260903011345 75 272 4.0 0.0 0.00 0.00 0.00 33 1017.0
20260903011033 75 247 4.0 4.0 0.00 0.00 0.00 33 1017.0
20260903010903 76 263 4.0 0.0 0.00 0.00 0.00 33 1017.0
20260903010504 75 275 4.0 4.0 0.00 0.00 0.00 33 1017.0
20260903010337 76 305 2.0 0.0 0.00 0.00 0.00 33 1017.0
20260903010056 76 210 3.0 4.0 0.00 0.00 0.00 33 1017.0
20260903005833 76 287 5.0 0.0 0.00 0.00 0.00 33 1017.0
20260903005554 76 234 3.0 5.0 0.00 0.00 0.00 33 1017.0
20260903005350 76 259 6.0 0.0 0.00 0.00 0.00 33 1017.0
20260903005021 76 217 4.0 5.0 0.00 0.00 0.00 33 1017.0
20260903004845 77 221 2.0 0.0 0.00 0.00 0.00 33 1017.0
20260903004516 77 230 4.0 6.0 0.00 0.00 0.00 33 1017.0
20260903004340 77 283 2.0 0.0 0.00 0.00 0.00 33 1017.0
20260903004007 77 308 2.0 6.0 0.00 0.00 0.00 33 1017.0
20260903003835 77 310 2.0 0.0 0.00 0.00 0.00 33 1017.0
20260903003558 77 276 6.0 6.0 0.00 0.00 0.00 33 1017.0
20260903003503 77 291 6.0 6.0 0.00 0.00 0.00 33 1017.0
20260903003332 78 259 8.0 0.0 0.00 0.00 0.00 33 1017.0
20260903003056 77 275 2.0 6.0 0.00 0.00 0.00 33 1017.0
20260903002828 77 241 6.0 0.0 0.00 0.00 0.00 33 1017.0
20260903002545 77 257 5.0 6.0 0.00 0.00 0.00 33 1017.0
20260903002405 77 224 5.0 0.0 0.00 0.00 0.00 33 1017.0
20260903002020 77 218 2.0 6.0 0.00 0.00 0.00 33 1017.0
20260903001839 77 284 8.0 0.0 0.00 0.00 0.00 33 1017.0
20260903001550 77 219 3.0 6.0 0.00 0.00 0.00 33 1017.0
20260903001338 77 201 5.0 0.0 0.00 0.00 0.00 33 1017.0
20260903001046 77 229 3.0 6.0 0.00 0.00 0.00 33 1017.0
20260903000833 78 228 7.0 0.0 0.00 0.00 0.00 33 1017.0
20260903000538 78 262 3.0 6.0 0.00 0.00 0.00 33 1017.0
20260903000333 78 216 4.0 0.0 0.00 0.00 0.00 33 1017.0
20260903000032 77 294 4.0 6.0 0.00 0.00 0.00 33 1017.0
20260902235830 78 215 9.0 0.0 0.00 0.00 0.00 33 1017.0
20260902235527 77 204 3.0 6.0 0.00 0.00 0.00 33 1017.0
20260902235328 78 262 5.0 0.0 0.00 0.00 0.00 33 1017.0
20260902235058 78 227 5.0 8.0 0.00 0.00 0.00 33 1017.0
20260902234844 78 266 7.0 0.0 0.00 0.00 0.00 33 1017.0
20260902234607 77 212 7.0 8.0 0.00 0.00 0.00 33 1017.0
20260902234400 78 266 7.0 0.0 0.00 0.00 0.00 33 1017.0
20260902234024 78 208 4.0 6.0 0.00 0.00 0.00 33 1017.0
20260902233837 78 196 8.0 0.0 0.00 0.00 0.00 33 1017.0
20260902233518 78 241 3.0 8.0 0.00 0.00 0.00 33 1017.0
20260902233352 78 232 3.0 0.0 0.00 0.00 0.00 33 1017.0
20260902233049 78 269 6.0 8.0 0.00 0.00 0.00 33 1017.0
20260902232829 78 233 2.0 0.0 0.00 0.00 0.00 33 1017.0
20260902232543 78 230 4.0 8.0 0.00 0.00 0.00 33 1017.0
20260902232347 78 235 7.0 0.0 0.00 0.00 0.00 33 1017.0
20260902232020 78 280 4.0 8.0 0.00 0.00 0.00 33 1017.0
20260902231845 78 223 4.0 0.0 0.00 0.00 0.00 33 1017.0
20260902231514 77 260 4.0 8.0 0.00 0.00 0.00 33 1017.0
20260902231341 77 291 5.0 0.0 0.00 0.00 0.00 33 1017.0
20260902231007 77 234 5.0 8.0 0.00 0.00 0.00 33 1017.0
20260902230855 78 240 8.0 0.0 0.00 0.00 0.00 33 1017.0
20260902230535 77 269 4.0 8.0 0.00 0.00 0.00 33 1017.0
20260902230351 78 224 5.0 0.0 0.00 0.00 0.00 33 1017.0
20260902230010 78 222 5.0 8.0 0.00 0.00 0.00 33 1017.0
20260902225829 78 220 4.0 0.0 0.00 0.00 0.00 33 1017.0
20260902225541 78 293 3.0 6.0 0.00 0.00 0.00 33 1017.0
20260902225343 79 229 8.0 0.0 0.00 0.00 0.00 33 1017.0
20260902225038 78 237 5.0 7.0 0.00 0.00 0.00 33 1017.0
20260902224841 79 229 5.0 0.0 0.00 0.00 0.00 33 1017.0
20260902224539 78 217 4.0 7.0 0.00 0.00 0.00 33 1017.0
20260902224337 78 156 2.0 0.0 0.00 0.00 0.00 33 1017.0
20260902224024 77 221 4.0 11.0 0.00 0.00 0.00 33 1017.0
20260902223856 78 273 9.0 0.0 0.00 0.00 0.00 33 1017.0
20260902223556 77 276 6.0 11.0 0.00 0.00 0.00 33 1017.0
20260902223332 78 227 8.0 0.0 0.00 0.00 0.00 33 1017.0
20260902223049 78 258 7.0 8.0 0.00 0.00 0.00 33 1017.0
20260902222827 78 262 4.0 0.0 0.00 0.00 0.00 33 1017.0
20260902222543 78 302 4.0 7.0 0.00 0.00 0.00 33 1017.0
20260902222325 79 278 7.0 0.0 0.00 0.00 0.00 33 1017.0
20260902222023 78 219 5.0 7.0 0.00 0.00 0.00 33 1017.0
20260902221827 79 244 5.0 0.0 0.00 0.00 0.00 33 1017.0
20260902221517 79 271 5.0 6.0 0.00 0.00 0.00 33 1017.0
20260902221341 79 242 5.0 0.0 0.00 0.00 0.00 33 1017.0
20260902221006 78 232 4.0 6.0 0.00 0.00 0.00 33 1017.0
20260902220837 78 181 4.0 0.0 0.00 0.00 0.00 33 1017.0
20260902220558 78 254 3.0 6.0 0.00 0.00 0.00 33 1017.0
20260902220501 78 209 4.0 6.0 0.00 0.00 0.00 33 1017.0
20260902220333 79 215 9.0 0.0 0.00 0.00 0.00 33 1017.0
20260902220051 79 210 5.0 8.0 0.00 0.00 0.00 33 1017.0
20260902215850 79 268 9.0 0.0 0.00 0.00 0.00 33 1017.0
20260902215527 78 235 6.0 8.0 0.00 0.00 0.00 33 1017.0
20260902215325 79 218 8.0 0.0 0.00 0.00 0.00 33 1017.0
20260902215019 79 278 6.0 6.0 0.00 0.00 0.00 33 1017.0
20260902214827 79 228 5.0 0.0 0.00 0.00 0.00 33 1017.0
20260902214515 79 237 4.0 8.0 0.00 0.00 0.00 33 1017.0
20260902214343 79 284 6.0 0.0 0.00 0.00 0.00 33 1017.0
20260902214008 78 226 3.0 9.0 0.00 0.00 0.00 33 1017.0
20260902213859 79 228 5.0 0.0 0.00 0.00 0.00 33 1017.0
20260902213535 78 254 6.0 9.0 0.00 0.00 0.00 33 1017.0
20260902213334 78 257 4.0 0.0 0.00 0.00 0.00 33 1017.0
20260902213034 78 278 3.0 6.0 0.00 0.00 0.00 33 1017.0
20260902212854 79 215 6.0 0.0 0.00 0.00 0.00 33 1017.0
20260902212600 78 235 5.0 8.0 0.00 0.00 0.00 33 1017.0
20260902212504 78 236 5.0 8.0 0.00 0.00 0.00 33 1017.0
20260902212346 79 219 10.0 0.0 0.00 0.00 0.00 33 1017.0
20260902212052 78 171 6.0 8.0 0.00 0.00 0.00 33 1017.0
20260902211838 79 215 4.0 0.0 0.00 0.00 0.00 33 1017.0
20260902211542 78 245 6.0 8.0 0.00 0.00 0.00 33 1017.0
20260902211355 79 255 7.0 0.0 0.00 0.00 0.00 33 1017.0
20260902211018 79 245 6.0 8.0 0.00 0.00 0.00 33 1017.0
20260902210831 79 224 5.0 0.0 0.00 0.00 0.00 33 1017.0
20260902210513 79 233 7.0 8.0 0.00 0.00 0.00 33 1017.0
20260902210331 79 234 3.0 0.0 0.00 0.00 0.00 33 1017.0
20260902210008 78 298 3.0 9.0 0.00 0.00 0.00 33 1017.0
20260902205846 79 224 9.0 0.0 0.00 0.00 0.00 33 1017.0
20260902205559 79 231 4.0 9.0 0.00 0.00 0.00 33 1017.0
20260902205504 79 204 6.0 9.0 0.00 0.00 0.00 33 1017.0
20260902205342 79 221 10.0 0.0 0.00 0.00 0.00 33 1017.0
20260902205051 79 214 6.0 9.0 0.00 0.00 0.00 33 1017.0
20260902204837 80 239 6.0 0.0 0.00 0.00 0.00 33 1017.0
20260902204544 80 266 7.0 9.0 0.00 0.00 0.00 33 1017.0
20260902204332 80 271 9.0 0.0 0.00 0.00 0.00 33 1017.0
20260902204041 79 223 4.0 7.0 0.00 0.00 0.00 33 1017.0
20260902203829 80 240 6.0 0.0 0.00 0.00 0.00 33 1017.0
20260902203534 80 254 5.0 9.0 0.00 0.00 0.00 33 1017.0
20260902203346 80 229 6.0 0.0 0.00 0.00 0.00 33 1017.0
20260902203029 79 284 7.0 9.0 0.00 0.00 0.00 33 1017.0
20260902202903 80 256 5.0 0.0 0.00 0.00 0.00 33 1017.0
20260902202558 79 229 5.0 9.0 0.00 0.00 0.00 33 1017.0
20260902202501 80 216 4.0 9.0 0.00 0.00 0.00 33 1017.0
20260902202338 80 225 5.0 0.0 0.00 0.00 0.00 33 1017.0
20260902202051 80 233 6.0 9.0 0.00 0.00 0.00 33 1017.0
20260902201834 80 279 5.0 0.0 0.00 0.00 0.00 33 1017.0
20260902201527 80 193 3.0 7.0 0.00 0.00 0.00 33 1017.0
20260902201333 80 262 1.0 0.0 0.00 0.00 0.00 33 1017.0
20260902201022 79 226 3.0 6.0 0.00 0.00 0.00 33 1017.0
20260902200830 80 149 3.0 0.0 0.00 0.00 0.00 33 1017.0
20260902200517 80 226 4.0 6.0 0.00 0.00 0.00 33 1017.0
20260902200329 81 214 4.0 0.0 0.00 0.00 0.00 33 1017.0
20260902200019 81 296 4.0 6.0 0.00 0.00 0.00 33 1017.0
20260902195829 81 257 4.0 0.0 0.00 0.00 0.00 33 1017.0
20260902195509 81 285 4.0 6.0 0.00 0.00 0.00 33 1017.0
20260902195326 82 256 2.0 0.0 0.00 0.00 0.00 33 1017.0
20260902195100 81 230 3.0 6.0 0.00 0.00 0.00 33 1017.0
20260902195002 81 279 2.0 6.0 0.00 0.00 0.00 33 1017.0
20260902194845 81 259 1.0 0.0 0.00 0.00 0.00 33 1017.0
20260902194530 81 230 3.0 6.0 0.00 0.00 0.00 33 1017.0
20260902194338 81 281 7.0 0.0 0.00 0.00 0.00 33 1017.0
20260902194022 81 291 4.0 8.0 0.00 0.00 0.00 33 1017.0
20260902193832 81 270 7.0 0.0 0.00 0.00 0.00 33 1017.0
20260902193517 81 237 6.0 8.0 0.00 0.00 0.00 33 1017.0
20260902193329 81 260 1.0 0.0 0.00 0.00 0.00 33 1017.0
20260902193012 81 291 5.0 6.0 0.00 0.00 0.00 33 1017.0
20260902192827 81 295 4.0 0.0 0.00 0.00 0.00 33 1017.0
20260902192506 80 300 4.0 6.0 0.00 0.00 0.00 33 1017.0
20260902192343 81 288 3.0 0.0 0.00 0.00 0.00 33 1017.0
20260902192039 80 269 5.0 6.0 0.00 0.00 0.00 33 1017.0
20260902191841 80 277 7.0 0.0 0.00 0.00 0.00 33 1017.0
20260902191534 80 280 3.0 6.0 0.00 0.00 0.00 33 1017.0
20260902191357 80 286 2.0 0.0 0.00 0.00 0.00 33 1017.0
20260902191101 80 218 2.0 4.0 0.00 0.00 0.00 33 1017.0
20260902191003 80 271 4.0 4.0 0.00 0.00 0.00 33 1017.0
20260902190852 81 257 6.0 0.0 0.00 0.00 0.00 33 1017.0
20260902190534 80 282 2.0 4.0 0.00 0.00 0.00 33 1017.0
20260902190328 80 278 5.0 0.0 0.00 0.00 0.00 33 1017.0
20260902190045 80 284 4.0 6.0 0.00 0.00 0.00 33 1017.0
20260902185846 80 292 5.0 0.0 0.00 0.00 0.00 33 1017.0
20260902185522 79 284 2.0 6.0 0.00 0.00 0.00 33 1017.0
20260902185341 80 201 1.0 0.0 0.00 0.00 0.00 33 1017.0
20260902185013 79 271 3.0 4.0 0.00 0.00 0.00 33 1017.0
20260902184833 80 272 6.0 0.0 0.00 0.00 0.00 33 1017.0
20260902184505 79 282 4.0 4.0 0.00 0.00 0.00 33 1017.0
20260902184329 80 287 12.0 0.0 0.00 0.00 0.00 33 1017.0